| time (UTC) | temp C | wind direction | speed KPH | gust KPH | rain 1hr cm | rain 24hr cm | rain mn cm | humidity % | barometer mb |
| 20260509084037 | 5 | 290 | 0.0 | 0.0 | 0.00 | 0.00 | 0.00 | 39 | 1013.6 |
| 20260509082036 | 5 | 290 | 0.0 | 0.0 | 0.00 | 0.00 | 0.00 | 39 | 1013.7 |
| 20260509081929 | 5 | 290 | 0.0 | 0.0 | 0.00 | 0.00 | 0.00 | 40 | 1013.7 |
| 20260509080037 | 5 | 290 | 0.0 | 0.0 | 0.00 | 0.00 | 0.00 | 39 | 1013.7 |
| 20260509074037 | 5 | 290 | 0.0 | 0.0 | 0.00 | 0.00 | 0.00 | 39 | 1013.8 |
| 20260509072037 | 5 | 290 | 0.0 | 0.0 | 0.00 | 0.00 | 0.00 | 39 | 1013.9 |
| 20260509071929 | 5 | 290 | 0.0 | 0.0 | 0.00 | 0.00 | 0.00 | 39 | 1013.9 |
| 20260509070036 | 5 | 290 | 0.0 | 0.0 | 0.00 | 0.00 | 0.00 | 38 | 1014.2 |
| 20260509064037 | 5 | 290 | 0.0 | 0.0 | 0.00 | 0.00 | 0.00 | 38 | 1014.1 |
| 20260509062037 | 5 | 290 | 0.0 | 0.0 | 0.00 | 0.00 | 0.00 | 35 | 1014.0 |
| 20260509061929 | 5 | 290 | 0.0 | 0.0 | 0.00 | 0.00 | 0.00 | 35 | 1014.0 |
| 20260509060037 | 5 | 290 | 0.0 | 0.0 | 0.00 | 0.00 | 0.00 | 38 | 1014.3 |
| 20260509054037 | 5 | 290 | 0.0 | 0.0 | 0.00 | 0.00 | 0.00 | 39 | 1014.4 |
| 20260509052037 | 5 | 290 | 0.0 | 0.0 | 0.00 | 0.00 | 0.00 | 40 | 1014.3 |
| 20260509051929 | 5 | 290 | 0.0 | 0.0 | 0.00 | 0.00 | 0.00 | 39 | 1014.3 |
| 20260509050037 | 5 | 290 | 0.0 | 0.0 | 0.00 | 0.00 | 0.00 | 37 | 1014.2 |
| 20260509044037 | 5 | 290 | 0.0 | 0.0 | 0.00 | 0.00 | 0.00 | 39 | 1014.1 |
| 20260509042037 | 5 | 290 | 0.0 | 0.0 | 0.00 | 0.00 | 0.00 | 39 | 1014.1 |
| 20260509041929 | 5 | 290 | 0.0 | 0.0 | 0.00 | 0.00 | 0.00 | 39 | 1014.1 |
| 20260509040036 | 5 | 290 | 0.0 | 0.0 | 0.00 | 0.00 | 0.00 | 43 | 1014.0 |
| 20260509034037 | 5 | 290 | 0.0 | 0.0 | 0.00 | 0.00 | 0.00 | 48 | 1013.7 |
| 20260509032036 | 5 | 290 | 0.0 | 0.0 | 0.00 | 0.00 | 0.00 | 52 | 1013.7 |
| 20260509031929 | 5 | 290 | 0.0 | 0.0 | 0.00 | 0.00 | 0.00 | 52 | 1013.5 |
| 20260509030036 | 6 | 290 | 0.0 | 0.0 | 0.00 | 0.00 | 0.00 | 58 | 1013.4 |
| 20260509024036 | 6 | 290 | 0.0 | 0.0 | 0.00 | 0.00 | 0.00 | 63 | 1013.4 |
| 20260509022036 | 6 | 290 | 0.0 | 0.0 | 0.00 | 0.00 | 0.00 | 66 | 1013.4 |
| 20260509021928 | 6 | 290 | 0.0 | 0.0 | 0.00 | 0.00 | 0.00 | 66 | 1013.4 |
| 20260509020036 | 7 | 290 | 0.0 | 0.0 | 0.00 | 0.00 | 0.00 | 68 | 1013.2 |
| 20260509014037 | 7 | 290 | 0.0 | 0.0 | 0.00 | 0.00 | 0.00 | 66 | 1012.9 |
| 20260509012036 | 8 | 290 | 0.0 | 0.0 | 0.00 | 0.00 | 0.00 | 62 | 1012.4 |
| 20260509011929 | 8 | 290 | 0.0 | 0.0 | 0.00 | 0.00 | 0.00 | 62 | 1012.4 |
| 20260509010036 | 10 | 290 | 0.0 | 0.0 | 0.00 | 0.00 | 0.00 | 58 | 1012.1 |
| 20260509004037 | 10 | 290 | 0.0 | 0.0 | 0.00 | 0.00 | 0.00 | 55 | 1011.9 |
| 20260509002037 | 11 | 290 | 0.0 | 0.0 | 0.00 | 0.00 | 0.00 | 51 | 1011.6 |
| 20260509001929 | 11 | 290 | 0.0 | 0.0 | 0.00 | 0.00 | 0.00 | 50 | 1011.5 |
| 20260509000036 | 12 | 290 | 0.0 | 12.9 | 0.00 | 0.00 | 0.00 | 49 | 1011.4 |
| 20260508234037 | 12 | 290 | 0.0 | 12.9 | 0.00 | 0.00 | 0.00 | 48 | 1010.9 |
| 20260508232037 | 13 | 290 | 0.0 | 12.9 | 0.00 | 0.00 | 0.00 | 47 | 1010.6 |
| 20260508231929 | 13 | 290 | 0.0 | 12.9 | 0.00 | 0.00 | 0.00 | 46 | 1010.7 |
| 20260508230037 | 13 | 286 | 0.0 | 14.5 | 0.00 | 0.00 | 0.00 | 48 | 1010.5 |
| 20260508224036 | 13 | 284 | 0.0 | 14.5 | 0.00 | 0.00 | 0.00 | 47 | 1010.4 |
| 20260508222036 | 13 | 290 | 0.0 | 14.5 | 0.00 | 0.00 | 0.00 | 48 | 1010.1 |
| 20260508221928 | 13 | 290 | 0.0 | 14.5 | 0.00 | 0.00 | 0.00 | 47 | 1010.2 |
| 20260508220038 | 13 | 307 | 0.0 | 12.9 | 0.00 | 0.00 | 0.00 | 49 | 1009.9 |
| 20260508214036 | 14 | 319 | 0.0 | 12.9 | 0.00 | 0.00 | 0.00 | 48 | 1009.9 |
| 20260508212037 | 14 | 338 | 0.0 | 12.9 | 0.00 | 0.00 | 0.00 | 50 | 1010.0 |
| 20260508211929 | 14 | 339 | 0.0 | 12.9 | 0.00 | 0.00 | 0.00 | 50 | 1009.9 |
| 20260508210037 | 15 | 311 | 8.0 | 24.1 | 0.00 | 0.00 | 0.00 | 47 | 1009.8 |
| 20260508204038 | 15 | 296 | 0.0 | 24.1 | 0.00 | 0.00 | 0.00 | 48 | 1009.8 |
| 20260508202036 | 15 | 278 | 9.7 | 24.1 | 0.00 | 0.00 | 0.00 | 48 | 1009.6 |
| 20260508201928 | 15 | 17 | 0.0 | 24.1 | 0.00 | 0.00 | 0.00 | 48 | 1009.7 |
| 20260508200037 | 15 | 313 | 0.0 | 14.5 | 0.00 | 0.00 | 0.00 | 48 | 1009.8 |
| 20260508192036 | 13 | 267 | 0.0 | 14.5 | 0.00 | 0.00 | 0.00 | 51 | 1009.6 |
| 20260508191928 | 13 | 267 | 0.0 | 14.5 | 0.00 | 0.00 | 0.00 | 52 | 1009.6 |
| 20260508190036 | 13 | 295 | 0.0 | 17.7 | 0.00 | 0.00 | 0.00 | 50 | 1009.7 |
| 20260508184036 | 13 | 285 | 8.0 | 17.7 | 0.00 | 0.00 | 0.00 | 50 | 1009.8 |
| 20260508182038 | 14 | 259 | 0.0 | 17.7 | 0.00 | 0.00 | 0.00 | 47 | 1009.4 |
| 20260508181928 | 14 | 279 | 0.0 | 17.7 | 0.00 | 0.00 | 0.00 | 44 | 1009.4 |
| 20260508180036 | 15 | 314 | 6.4 | 22.5 | 0.00 | 0.00 | 0.00 | 40 | 1008.8 |
| 20260508174036 | 16 | 298 | 0.0 | 22.5 | 0.00 | 0.00 | 0.00 | 39 | 1008.9 |
| 20260508172038 | 16 | 5 | 0.0 | 22.5 | 0.00 | 0.00 | 0.00 | 41 | 1009.0 |
| 20260508171928 | 16 | 5 | 0.0 | 22.5 | 0.00 | 0.00 | 0.00 | 40 | 1009.1 |
| 20260508164038 | 16 | 300 | 0.0 | 20.9 | 0.00 | 0.00 | 0.00 | 39 | 1009.4 |
| 20260508162038 | 16 | 254 | 0.0 | 20.9 | 0.00 | 0.00 | 0.00 | 42 | 1009.7 |
| 20260508161928 | 16 | 254 | 0.0 | 20.9 | 0.00 | 0.00 | 0.00 | 42 | 1009.7 |
| 20260508160038 | 16 | 238 | 0.0 | 19.3 | 0.00 | 0.00 | 0.00 | 43 | 1009.8 |
| 20260508154038 | 16 | 229 | 0.0 | 19.3 | 0.00 | 0.00 | 0.00 | 42 | 1009.9 |
| 20260508152037 | 15 | 299 | 6.4 | 19.3 | 0.00 | 0.00 | 0.00 | 43 | 1010.0 |
| 20260508151928 | 15 | 213 | 0.0 | 19.3 | 0.00 | 0.00 | 0.00 | 42 | 1010.1 |
| 20260508150036 | 15 | 303 | 0.0 | 12.9 | 0.00 | 0.00 | 0.00 | 42 | 1010.1 |
| 20260508144036 | 15 | 197 | 1.6 | 12.9 | 0.00 | 0.00 | 0.00 | 42 | 1010.2 |
| 20260508142036 | 14 | 310 | 1.6 | 12.9 | 0.00 | 0.00 | 0.00 | 45 | 1010.2 |
| 20260508141928 | 14 | 309 | 8.0 | 12.9 | 0.00 | 0.00 | 0.00 | 46 | 1010.3 |
| 20260508140038 | 13 | 302 | 0.0 | 11.3 | 0.00 | 0.00 | 0.00 | 47 | 1010.5 |
| 20260508134038 | 13 | 289 | 0.0 | 11.3 | 0.00 | 0.00 | 0.00 | 48 | 1010.8 |
| 20260508132036 | 13 | 325 | 0.0 | 11.3 | 0.00 | 0.00 | 0.00 | 47 | 1010.7 |
| 20260508131928 | 12 | 326 | 0.0 | 11.3 | 0.00 | 0.00 | 0.00 | 48 | 1010.8 |
| 20260508130036 | 12 | 25 | 0.0 | 0.0 | 0.00 | 0.00 | 0.00 | 51 | 1010.8 |
| 20260508124036 | 11 | 304 | 0.0 | 0.0 | 0.00 | 0.00 | 0.00 | 54 | 1010.8 |
| 20260508122038 | 9 | 323 | 0.0 | 0.0 | 0.00 | 0.00 | 0.00 | 58 | 1010.8 |
| 20260508121928 | 9 | 323 | 0.0 | 0.0 | 0.00 | 0.00 | 0.00 | 58 | 1010.8 |
| 20260508120036 | 7 | 311 | 0.0 | 0.0 | 0.00 | 0.00 | 0.00 | 67 | 1010.8 |
| 20260508114036 | 6 | 311 | 0.0 | 0.0 | 0.00 | 0.00 | 0.00 | 56 | 1010.9 |
| 20260508112036 | 5 | 311 | 0.0 | 0.0 | 0.00 | 0.00 | 0.00 | 43 | 1010.8 |
| 20260508111928 | 5 | 311 | 0.0 | 0.0 | 0.00 | 0.00 | 0.00 | 43 | 1010.8 |
| 20260508110038 | 4 | 311 | 0.0 | 0.0 | 0.00 | 0.00 | 0.00 | 37 | 1010.6 |
| 20260508104036 | 3 | 311 | 0.0 | 0.0 | 0.00 | 0.00 | 0.00 | 36 | 1010.5 |
| 20260508102036 | 3 | 311 | 0.0 | 0.0 | 0.00 | 0.05 | 0.00 | 32 | 1010.4 |
| 20260508101928 | 3 | 311 | 0.0 | 0.0 | 0.00 | 0.05 | 0.00 | 32 | 1010.4 |
| 20260508100036 | 3 | 311 | 0.0 | 0.0 | 0.00 | 0.15 | 0.00 | 33 | 1010.0 |
| 20260508094036 | 3 | 311 | 0.0 | 0.0 | 0.00 | 0.15 | 0.00 | 35 | 1009.9 |
| 20260508092036 | 3 | 311 | 0.0 | 0.0 | 0.00 | 0.18 | 0.00 | 36 | 1009.9 |
| 20260508091928 | 3 | 311 | 0.0 | 0.0 | 0.00 | 0.18 | 0.00 | 36 | 1009.9 |
| 20260508090036 | 3 | 311 | 0.0 | 0.0 | 0.00 | 0.20 | 0.00 | 32 | 1009.9 |